When you browse on this site, cookies collect data to enhance your experience and personalize the content and advertising you see.
Visit our Privacy Policy to learn more. By continuing to use the site, you agree to this use of cookies and data.

Stündliche Wetter Guanare

Heute, 15 Juli, Mittwoch

Zeit Temperatur Niederschläge Wind Luftdruck Luftfeuchtigkeit
00:00 +24°C° 0 mm 1 m/S 743 mmHg 87%
01:00 +24°C° 0 mm 1 m/S 742 mmHg 86%
02:00 +24°C° 0 mm 1 m/S 742 mmHg 83%
03:00 +23°C° 0 mm 0 m/S 742 mmHg 81%
04:00 +23°C° 0 mm 0 m/S 742 mmHg 78%
05:00 +23°C° 0.9 mm 0 m/S 742 mmHg 82%
06:00 +23°C° 0.9 mm 0 m/S 743 mmHg 85%
07:00 +24°C° 0.9 mm 0 m/S 743 mmHg 88%
08:00 +25°C° 1.2 mm 0 m/S 743 mmHg 89%
09:00 +26°C° 1.2 mm 0 m/S 743 mmHg 89%
10:00 +29°C° 1.2 mm 1 m/S 743 mmHg 89%
11:00 +29°C° 2.4 mm 1 m/S 743 mmHg 88%
12:00 +29°C° 2.4 mm 1 m/S 742 mmHg 87%
13:00 +29°C° 2.4 mm 1 m/S 741 mmHg 86%
14:00 +27°C° 0.6 mm 0 m/S 741 mmHg 86%
15:00 +27°C° 0.6 mm 0 m/S 740 mmHg 86%
16:00 +26°C° 0.6 mm 0 m/S 740 mmHg 86%
17:00 +25°C° 0.1 mm 0 m/S 740 mmHg 88%
18:00 +24°C° 0.1 mm 0 m/S 741 mmHg 90%
19:00 +23°C° 0.1 mm 0 m/S 741 mmHg 92%
20:00 +23°C° 0 mm 0 m/S 741 mmHg 92%
21:00 +25°C° 0 mm 1 m/S 742 mmHg 92%
22:00 +24°C° 0 mm 1 m/S 742 mmHg 92%
23:00 +24°C° 0 mm 1 m/S 742 mmHg 92%

Morgen, 16 Juli, Donnerstag

Zeit Temperatur Niederschläge Wind Luftdruck Luftfeuchtigkeit
00:00 +24°C° 0 mm 1 m/S 742 mmHg 91%
01:00 +24°C° 0 mm 1 m/S 741 mmHg 91%
02:00 +24°C° 0 mm 1 m/S 741 mmHg 90%
03:00 +23°C° 0 mm 1 m/S 741 mmHg 90%
04:00 +23°C° 0 mm 1 m/S 741 mmHg 90%
05:00 +22°C° 0 mm 0 m/S 741 mmHg 88%
06:00 +23°C° 0 mm 0 m/S 742 mmHg 86%
07:00 +24°C° 0 mm 0 m/S 742 mmHg 84%
08:00 +26°C° 0.3 mm 0 m/S 742 mmHg 80%
09:00 +27°C° 0.3 mm 0 m/S 742 mmHg 76%
10:00 +29°C° 0.3 mm 0 m/S 742 mmHg 72%
11:00 +31°C° 1.3 mm 1 m/S 742 mmHg 75%
12:00 +30°C° 1.3 mm 1 m/S 741 mmHg 79%
13:00 +30°C° 1.3 mm 1 m/S 741 mmHg 82%
14:00 +29°C° 1 mm 1 m/S 740 mmHg 85%
15:00 +29°C° 1 mm 1 m/S 740 mmHg 88%
16:00 +28°C° 1 mm 1 m/S 739 mmHg 91%
17:00 +27°C° 0.1 mm 1 m/S 740 mmHg 92%
18:00 +26°C° 0.1 mm 1 m/S 740 mmHg 93%
19:00 +24°C° 0.1 mm 0 m/S 741 mmHg 95%
20:00 +25°C° 0 mm 1 m/S 741 mmHg 94%
21:00 +25°C° 0 mm 1 m/S 742 mmHg 94%
22:00 +25°C° 0 mm 1 m/S 742 mmHg 94%
23:00 +24°C° 0 mm 1 m/S 742 mmHg 93%

übermorgen, 17 Juli, Freitag

Zeit Temperatur Niederschläge Wind Luftdruck Luftfeuchtigkeit
00:00 +24°C° 0 mm 1 m/S 742 mmHg 93%
01:00 +24°C° 0 mm 1 m/S 741 mmHg 92%
02:00 +24°C° 0 mm 1 m/S 741 mmHg 92%
03:00 +24°C° 0 mm 1 m/S 741 mmHg 91%
04:00 +21°C° 0 mm 0 m/S 741 mmHg 91%
05:00 +22°C° 0.1 mm 0 m/S 741 mmHg 90%
06:00 +23°C° 0.1 mm 0 m/S 742 mmHg 89%
07:00 +23°C° 0.1 mm 0 m/S 742 mmHg 88%
08:00 +24°C° 0.3 mm 0 m/S 743 mmHg 87%
09:00 +27°C° 0.3 mm 1 m/S 743 mmHg 85%
10:00 +28°C° 0.3 mm 1 m/S 743 mmHg 84%
11:00 +29°C° 0.9 mm 1 m/S 742 mmHg 82%
12:00 +29°C° 0.9 mm 1 m/S 742 mmHg 80%
13:00 +30°C° 0.9 mm 1 m/S 741 mmHg 78%
14:00 +30°C° 0.3 mm 1 m/S 740 mmHg 78%
15:00 +30°C° 0.3 mm 1 m/S 740 mmHg 78%
16:00 +30°C° 0.3 mm 1 m/S 740 mmHg 77%
17:00 +26°C° 0.1 mm 0 m/S 740 mmHg 83%
18:00 +25°C° 0.1 mm 0 m/S 740 mmHg 89%
19:00 +24°C° 0.1 mm 0 m/S 741 mmHg 94%
20:00 +23°C° 0.1 mm 0 m/S 741 mmHg 95%
21:00 +23°C° 0.1 mm 0 m/S 742 mmHg 95%
22:00 +23°C° 0.1 mm 0 m/S 742 mmHg 96%
23:00 +23°C° 1 mm 0 m/S 742 mmHg 96%

18 Juli, Samstag

Zeit Temperatur Niederschläge Wind Luftdruck Luftfeuchtigkeit
00:00 +22°C° 1 mm 0 m/S 741 mmHg 97%
01:00 +22°C° 1 mm 0 m/S 741 mmHg 97%
02:00 +22°C° 0.5 mm 0 m/S 741 mmHg 97%
03:00 +22°C° 0.5 mm 0 m/S 741 mmHg 97%
04:00 +22°C° 0.5 mm 0 m/S 741 mmHg 97%
05:00 +22°C° 0 mm 0 m/S 741 mmHg 96%
06:00 +23°C° 0 mm 0 m/S 742 mmHg 96%
07:00 +24°C° 0 mm 0 m/S 742 mmHg 95%
08:00 +27°C° 0.8 mm 1 m/S 742 mmHg 91%
09:00 +28°C° 0.8 mm 1 m/S 742 mmHg 88%
10:00 +29°C° 0.8 mm 2 m/S 742 mmHg 85%
11:00 +29°C° 1.1 mm 2 m/S 741 mmHg 84%
12:00 +30°C° 1.1 mm 2 m/S 741 mmHg 83%
13:00 +30°C° 1.1 mm 2 m/S 740 mmHg 81%
14:00 +30°C° 0.4 mm 1 m/S 740 mmHg 80%
15:00 +30°C° 0.4 mm 1 m/S 739 mmHg 79%
16:00 +30°C° 0.4 mm 1 m/S 739 mmHg 78%
17:00 +29°C° 1.1 mm 1 m/S 739 mmHg 84%
18:00 +27°C° 1.1 mm 1 m/S 740 mmHg 90%
19:00 +24°C° 1.1 mm 0 m/S 740 mmHg 95%
20:00 +24°C° 1.7 mm 0 m/S 740 mmHg 96%
21:00 +23°C° 1.7 mm 0 m/S 741 mmHg 96%
22:00 +23°C° 1.7 mm 0 m/S 742 mmHg 97%
23:00 +23°C° 0.7 mm 0 m/S 741 mmHg 97%

19 Juli, Sonntag

Zeit Temperatur Niederschläge Wind Luftdruck Luftfeuchtigkeit
00:00 +22°C° 0.7 mm 0 m/S 741 mmHg 97%
01:00 +22°C° 0.7 mm 0 m/S 741 mmHg 97%
02:00 +22°C° 0.1 mm 0 m/S 741 mmHg 97%
03:00 +22°C° 0.1 mm 0 m/S 741 mmHg 97%
04:00 +22°C° 0.1 mm 0 m/S 741 mmHg 97%
05:00 +22°C° 0 mm 0 m/S 741 mmHg 96%
06:00 +23°C° 0 mm 0 m/S 741 mmHg 95%
07:00 +24°C° 0 mm 0 m/S 741 mmHg 94%
08:00 +25°C° 0.6 mm 0 m/S 742 mmHg 87%
09:00 +27°C° 0.6 mm 0 m/S 742 mmHg 80%
10:00 +31°C° 0.6 mm 1 m/S 742 mmHg 74%
11:00 +30°C° 1.7 mm 1 m/S 741 mmHg 78%
12:00 +30°C° 1.7 mm 1 m/S 740 mmHg 83%
13:00 +30°C° 1.7 mm 1 m/S 740 mmHg 87%
14:00 +30°C° 1.7 mm 1 m/S 739 mmHg 86%
15:00 +29°C° 1.7 mm 1 m/S 739 mmHg 86%
16:00 +27°C° 1.7 mm 0 m/S 739 mmHg 85%
17:00 +26°C° 0.1 mm 0 m/S 739 mmHg 88%
18:00 +25°C° 0.1 mm 0 m/S 739 mmHg 91%
19:00 +23°C° 0.1 mm 0 m/S 740 mmHg 94%
20:00 +23°C° 0.3 mm 0 m/S 740 mmHg 94%
21:00 +23°C° 0.3 mm 0 m/S 741 mmHg 94%
22:00 +25°C° 0.3 mm 1 m/S 741 mmHg 95%
23:00 +24°C° 0 mm 1 m/S 741 mmHg 95%

20 Juli, Montag

Zeit Temperatur Niederschläge Wind Luftdruck Luftfeuchtigkeit
00:00 +24°C° 0 mm 1 m/S 741 mmHg 94%
01:00 +24°C° 0 mm 1 m/S 740 mmHg 94%
02:00 +24°C° 0 mm 1 m/S 740 mmHg 94%
03:00 +24°C° 0 mm 1 m/S 740 mmHg 94%
04:00 +22°C° 0 mm 0 m/S 740 mmHg 94%
05:00 +22°C° 0 mm 0 m/S 741 mmHg 92%
06:00 +23°C° 0 mm 0 m/S 741 mmHg 91%
07:00 +23°C° 0 mm 0 m/S 741 mmHg 90%
08:00 +25°C° 0.6 mm 0 m/S 741 mmHg 89%
09:00 +28°C° 0.6 mm 1 m/S 742 mmHg 88%
10:00 +29°C° 0.6 mm 1 m/S 742 mmHg 87%
11:00 +29°C° 2.1 mm 1 m/S 741 mmHg 88%
12:00 +29°C° 2.1 mm 1 m/S 741 mmHg 89%
13:00 +29°C° 2.1 mm 1 m/S 740 mmHg 91%
14:00 +28°C° 1.2 mm 1 m/S 740 mmHg 92%
15:00 +25°C° 1.2 mm 0 m/S 739 mmHg 93%
16:00 +25°C° 1.2 mm 0 m/S 739 mmHg 94%
17:00 +24°C° 0.1 mm 0 m/S 739 mmHg 95%
18:00 +24°C° 0.1 mm 0 m/S 740 mmHg 95%
19:00 +23°C° 0.1 mm 0 m/S 740 mmHg 95%
20:00 +23°C° 0 mm 0 m/S 740 mmHg 96%
21:00 +23°C° 0 mm 0 m/S 741 mmHg 96%
22:00 +22°C° 0 mm 0 m/S 741 mmHg 96%
23:00 +22°C° 0 mm 0 m/S 741 mmHg 96%
Mehr zeigen